Morrisville, VT

3:30 AM EDT on October 15, 2019 (GMT -0400)
Morrisville Stowe State

Weather History for KMVL - August, 2019

Change the Weather History Date:

Saturday, August 31, 2019

  Actual Average Record
Temperature  
Mean Temperature 58 °F 63 °F  
Max Temperature 70 °F 75 °F 89 °F (2010)
Min Temperature 46 °F 51 °F 37 °F (1999)
Degree Days  
Heating Degree Days 7 4  
Month to date heating degree days 55 66  
Since 1 June heating degree days 208 218  
Since 1 July heating degree days 65 95  
Cooling Degree Days 0 1  
Month to date cooling degree days 61 79  
Year to date cooling degree days 243 247  
Since 1 June cooling degree days 242 239  
Growing Degree Days 8 (Base 50)    
Moisture  
Dew Point 49 °F    
Average Humidity 71    
Maximum Humidity 100    
Minimum Humidity 44    
Precipitation  
Precipitation 0.00 in 0.10 in 1.97 in (2005)
Month to date precipitation 3.79 4.03  
Year to date precipitation 27.23 23.76  
Sea Level Pressure  
Sea Level Pressure 30.23 in    
Wind  
Wind Speed 3 mph ()    
Max Wind Speed 14 mph    
Max Gust Speed 20 mph    
Visibility 10.0 miles    
Events      
T = Trace of Precipitation, MM = Missing Value Source: Averaged Metar Reports

Daily Weather History Graph

Daily Weather History Graph

Search for Another Location

Airport or City:

Astronomy

Aug. 31, 2019 Rise Set
Actual Time 6:11 AM EDT 7:29 PM EDT
Civil Twilight 5:41 AM EDT 7:59 PM EDT
Nautical Twilight 5:05 AM EDT 8:35 PM EDT
Astronomical Twilight 4:26 AM EDT 9:13 PM EDT
Moon 7:25 AM EDT (8/31) 8:37 PM EDT (8/31)
Length of Visible Light 14h 17m
Length of Day
13h 17m
New Moon, 2% of the Moon is Illuminated
Aug 31
New Moon
Sep 5
First Quarter
Sep 14
Full
Sep 21
Last Quarter
Sep 28
New

Hourly Weather History & Observations

Time (EDT) Temp. Dew Point Humidity Pressure Visibility Wind Dir Wind Speed Gust Speed Precip Events Conditions
12:54 AM 57.0 °F 50.0 °F 77% 30.09 in 10.0 mi SSW 4.6 mph - N/A   Clear
1:54 AM 54.0 °F 50.0 °F 86% 30.09 in 10.0 mi Calm Calm - N/A   Partly Cloudy
2:54 AM 55.0 °F 51.1 °F 86% 30.10 in 10.0 mi South 5.8 mph - N/A   Partly Cloudy
3:54 AM 55.0 °F 52.0 °F 89% 30.12 in 10.0 mi Calm Calm - N/A   Mostly Cloudy
4:54 AM 61.0 °F 48.0 °F 62% 30.14 in 10.0 mi Calm Calm - N/A   Mostly Cloudy
5:54 AM 60.1 °F 46.0 °F 60% 30.15 in 10.0 mi Variable 3.5 mph - N/A   Partly Cloudy
6:54 AM 57.0 °F 48.9 °F 74% 30.18 in 10.0 mi SSW 5.8 mph - N/A   Partly Cloudy
7:54 AM 55.9 °F 51.1 °F 84% 30.19 in 10.0 mi Calm Calm - N/A   Clear
8:54 AM 60.1 °F 52.0 °F 75% 30.20 in 10.0 mi Calm Calm - N/A   Scattered Clouds
9:54 AM 63.0 °F 52.0 °F 67% 30.22 in 10.0 mi NE 4.6 mph - N/A   Mostly Cloudy
10:54 AM 63.0 °F 51.1 °F 65% 30.22 in 10.0 mi SE 4.6 mph - N/A   Mostly Cloudy
11:54 AM 64.9 °F 50.0 °F 58% 30.22 in 10.0 mi Calm Calm - N/A   Overcast
12:54 PM 64.9 °F 51.1 °F 61% 30.23 in 10.0 mi Calm Calm - N/A   Overcast
1:54 PM 64.9 °F 50.0 °F 58% 30.24 in 10.0 mi Variable 5.8 mph - N/A   Mostly Cloudy
2:54 PM 68.0 °F 48.9 °F 50% 30.24 in 10.0 mi NNW 6.9 mph - N/A   Overcast
3:54 PM 70.0 °F 46.9 °F 44% 30.25 in 10.0 mi NNW 6.9 mph 17.3 mph N/A   Mostly Cloudy
4:54 PM 68.0 °F 48.0 °F 49% 30.26 in 10.0 mi NW 9.2 mph - N/A   Mostly Cloudy
5:54 PM 64.9 °F 46.9 °F 52% 30.28 in 10.0 mi WNW 4.6 mph - N/A   Partly Cloudy
6:54 PM 64.0 °F 48.0 °F 56% 30.30 in 10.0 mi Variable 3.5 mph - N/A   Overcast
7:54 PM 57.9 °F 52.0 °F 81% 30.31 in 10.0 mi Calm Calm - N/A   Mostly Cloudy
8:54 PM 54.0 °F 50.0 °F 86% 30.33 in 10.0 mi South 3.5 mph - N/A   Clear
9:54 PM 51.1 °F 48.9 °F 92% 30.34 in 10.0 mi SSW 3.5 mph - N/A   Clear
10:54 PM 50.0 °F 46.9 °F 89% 30.35 in 10.0 mi Calm Calm - N/A   Clear
11:54 PM 46.9 °F 46.0 °F 97% 30.36 in 10.0 mi SSW 3.5 mph - N/A   Clear